CDT,Max TemperatureF,Mean TemperatureF,Min TemperatureF,Max Dew PointF,MeanDew PointF,Min DewpointF,Max Humidity, Mean Humidity, Min Humidity, Max Sea Level PressureIn, Mean Sea Level PressureIn, Min Sea Level PressureIn, Max VisibilityMiles, Mean VisibilityMiles, Min VisibilityMiles, Max Wind SpeedMPH, Mean Wind SpeedMPH, Max Gust SpeedMPH,PrecipitationIn, CloudCover, Events, WindDirDegrees
2013-9-1,82,71,59,67,58,54,84,62,40,30.04,29.94,29.81,10,10,10,22,10,30,T,2,Rain-Thunderstorm,339
2013-9-2,82,67,51,58,55,50,100,71,42,30.12,30.07,30.02,10,7,0,12,4,15,0.00,0,Fog,83
2013-9-3,86,70,53,63,58,51,93,71,48,30.07,30.03,29.98,10,10,10,20,8,24,0.00,0,,163
2013-9-4,88,77,65,62,60,58,81,61,40,30.10,30.06,30.00,10,10,10,17,7,21,0.00,2,,155
2013-9-5,86,77,68,66,62,60,78,63,48,30.15,30.10,30.04,10,10,10,23,12,31,T,2,Thunderstorm,153
2013-9-6,95,81,67,67,64,60,81,61,41,30.06,29.94,29.83,10,10,10,23,13,29,0.00,0,,166
2013-9-7,87,77,67,72,67,62,93,75,57,29.93,29.89,29.82,10,9,2,13,5,17,0.11,1,Rain-Thunderstorm,51
2013-9-8,91,80,69,73,71,68,100,76,52,29.95,29.87,29.74,10,6,0,16,9,22,0.00,2,Fog,116
2013-9-9,97,84,70,67,61,57,68,49,30,29.83,29.74,29.70,10,10,10,23,11,30,0.00,0,,204
2013-9-10,87,75,63,66,63,60,93,69,45,30.04,29.93,29.83,10,10,9,17,6,24,0.01,2,Rain,22
2013-9-11,85,73,60,66,61,56,100,70,40,30.14,30.10,30.05,10,10,7,18,3,25,0.00,2,,254
2013-9-12,81,66,51,61,49,43,97,63,28,30.27,30.20,30.13,10,10,10,16,4,23,0.00,0,,27
2013-9-13,76,60,43,51,47,42,100,68,36,30.25,30.17,30.05,10,9,2,13,5,17,0.00,0,,150
2013-9-14,75,66,57,57,51,48,77,62,46,30.05,29.94,29.83,10,10,10,21,11,29,T,5,,174
2013-9-15,73,67,61,59,55,52,90,72,53,30.27,30.06,29.83,10,10,10,23,13,30,0.00,5,,5
2013-9-16,69,63,57,54,52,49,80,68,55,30.33,30.26,30.17,10,10,10,17,9,23,T,7,Rain,111
2013-9-17,72,65,57,66,60,54,100,89,78,30.18,29.99,29.81,10,7,1,18,11,23,0.02,8,Rain,153
2013-9-18,91,80,68,67,66,64,93,70,47,29.79,29.69,29.61,10,9,6,23,14,31,0.00,0,,175
2013-9-19,78,65,51,63,56,45,93,66,38,30.04,29.82,29.62,10,10,7,32,13,41,0.06,3,Rain,289
2013-9-20,71,57,42,47,42,40,89,61,33,30.10,30.05,29.99,10,10,10,23,10,29,0.00,0,,305
2013-9-21,82,60,37,52,45,37,92,63,33,30.04,29.93,29.81,10,10,10,18,9,24,0.00,0,,148
2013-9-22,84,72,59,52,49,46,75,52,28,29.82,29.77,29.70,10,10,10,29,17,37,0.00,0,,168
2013-9-23,80,69,57,55,48,44,72,52,31,29.75,29.71,29.63,10,10,7,12,15,15,0.20,1,Rain,143
2013-9-24,74,63,52,59,56,54,93,73,53,29.93,29.87,29.73,10,9,2,16,7,21,0.04,6,Rain,357
2013-9-25,80,64,48,58,53,48,100,73,45,29.93,29.85,29.69,10,4,0,25,11,32,0.00,0,Fog,137
2013-9-26,89,76,63,59,57,55,84,58,32,29.71,29.68,29.63,10,10,10,29,18,38,0.00,0,,150
2013-9-27,88,74,59,60,58,56,61,48,35,29.72,29.69,29.62,10,10,10,30,19,36,T,1,Rain,165
2013-9-28,68,59,49,55,47,37,96,65,34,30.04,29.86,29.68,10,9,4,25,13,30,0.41,5,Rain,295
2013-9-29,80,65,50,43,41,39,63,43,23,30.04,29.91,29.80,10,10,10,26,16,35,0.00,0,,198
2013-9-30,85,70,54,50,47,42,72,50,27,29.79,29.70,29.62,10,10,10,21,14,28,0.00,0,,195